sat.trackr.live / text

‹ back to catalog

2026-134B

NORAD 69539 · 2026-134B

PAYLOAD ACTIVE UNKNOWN

§ Identity

Operator
Country
PRC
Launch date
2026-06-15
Launch site
JSC
Launch vehicle
Mass (kg)
RCS (m²)

External: N2YO · Heavens-Above · Gunter

§ Orbital elements

Epoch: 2026-09-19T22:35:15.943200Z

Period
95.45 min
Inclination
97.6902°
Eccentricity
0.0015063
Mean motion
15.08697574 rev/d
Perigee alt
529.8 km
Apogee alt
550.6 km
Semi-major
6,918.3 km
B*
2.1397e-4
RAAN
333.3160°
Arg perigee
311.0073°
Mean anomaly
48.9852°
Rev number
1,459

§ Raw data

2026-134B1 69539U 26134B   26262.94115675  .00003297  00000+0  21397-3 0  99992 69539  97.6902 333.3160 0015063 311.0073  48.9852 15.08697574 14593

JSON: /api/v1/satellites/69539 · /tle

For live sub-satellite position, see the globe view (requires WebGL).

§ Visibility from observer

Set your observer location to see the next 7 days of passes ≥ 10°. The values pass through the URL so the page stays shareable.

No JS? Fill the form by hand. The geolocation button needs JavaScript.